Cloud_Cover
100 100 100 89 100 100 89 84 93 99 83 99 98 100 100 100 100 51 40 89 67 58 3 1 0 0 4 4 5 27 2 0 0 0 0 0 5 5 4 0 2 0 5 27 38 43 58 12 7 25 47 50 6 5
100 100 100 100 79 85 98 100 100 100 99 98 96 100 100 100 100 98 11 64 54 59 2 4 0 0 0 57 64 4 3 6 5 3 0 5 5 18 5 0 3 0 4 4 5 62 72 85 22 5 9 88 96 5
97 100 100 100 100 98 100 100 100 100 82 100 100 100 100 100 100 72 62 91 15 24 5 0 0 0 0 0 21 72 5 15 3 0 21 15 10 5 15 3 5 5 4 26 53 99 100 30 6 90 100 46 13 31
100 100 100 100 100 100 81 90 100 100 100 93 100 100 99 100 100 92 85 43 48 16 9 2 0 0 0 0 1 97 14 93 7 6 37 8 20 14 5 9 43 9 6 5 5 96 15 97 100 97 80 15 5 6
100 100 100 100 100 100 59 13 50 91 70 100 100 100 100 100 100 96 92 46 77 49 54 10 0 0 0 0 0 4 3 24 100 71 62 60 36 65 5 5 7 53 5 4 5 4 5 100 14 5 5 5 0 5
29 99 78 11 7 69 98 100 100 99 100 96 100 100 100 100 100 89 94 26 0 47 10 6 0 0 0 0 0 0 40 26 99 100 53 82 80 26 5 8 73 1 0 0 5 0 42 95 5 5 5 0 2 5
3 98 99 49 86 100 76 56 22 7 20 73 96 100 100 100 96 65 34 100 62 62 45 20 4 4 0 0 0 5 23 98 100 99 99 96 80 6 18 27 6 4 5 3 1 5 5 5 5 0 0 0 5 5
16 88 100 98 13 69 93 97 83 11 5 93 100 97 100 100 65 16 64 100 100 100 94 36 9 1 5 16 4 0 82 62 88 77 95 72 80 25 48 4 4 5 4 0 0 0 3 4 4 0 0 1 5 5
98 8 23 100 91 64 100 97 93 67 46 7 94 100 89 56 52 58 13 64 74 100 100 37 4 60 9 27 67 6 99 63 66 18 94 89 87 62 4 2 3 0 0 0 0 0 0 0 0 0 0 0 5 5
100 100 98 69 96 99 97 100 99 61 84 100 26 64 80 60 5 8 4 76 100 100 100 100 26 44 48 100 58 47 4 15 52 42 98 100 76 5 5 4 0 0 0 0 0 1 3 0 0 8 6 2 1 2
100 100 100 100 100 100 100 100 99 85 96 86 43 55 48 51 42 57 85 96 99 100 100 26 15 70 99 91 56 100 37 31 72 99 76 94 12 34 0 0 0 0 0 0 0 0 0 0 1 0 5 29 39 15
100 100 100 96 90 100 100 99 65 44 68 63 93 81 92 58 91 98 73 91 98 37 100 90 100 100 100 100 100 78 89 24 22 12 12 22 29 14 29 54 50 54 73 22 5 4 1 0 5 5 5 6 5 6
27 70 100 100 100 100 100 58 20 99 34 53 96 92 100 73 98 95 80 84 100 100 100 100 100 100 84 84 100 100 100 100 35 63 17 72 82 47 72 95 68 17 15 8 5 5 5 5 5 12 30 47 18 10
100 100 100 100 89 24 32 96 100 70 40 100 100 100 100 91 41 22 95 100 100 100 98 100 100 100 98 100 100 100 100 100 100 100 100 100 53 46 40 6 7 78 100 100 88 67 98 76 96 100 99 73 56 90
87 89 99 80 22 44 68 81 100 100 100 100 100 100 100 100 100 100 100 100 100 77 100 100 100 100 100 100 100 100 100 100 88 100 100 97 48 50 100 100 100 100 100 96 74 50 99 100 100 100 42 59 91 100
33 22 94 79 100 100 100 93 98 100 100 100 100 100 100 100 100 100 100 100 98 85 98 100 100 100 100 100 100 100 100 100 99 100 100 100 100 100 90 100 100 100 100 59 62 62 98 100 100 98 100 95 100 100
88 100 100 100 90 78 99 100 100 100 100 100 100 100 100 100 99 100 99 100 85 86 96 71 96 100 100 100 100 79 99 100 100 100 100 100 100 99 100 100 100 100 100 100 100 100 100 88 100 100 100 100 100 100
95 100 99 78 100 100 100 100 100 100 100 100 100 100 100 100 100 100 100 100 100 100 80 86 73 82 97 100 100 100 100 100 100 100 100 100 100 100 100 100 100 99 99 76 73 91 98 88 44 100 93 100 99 95
79 100 100 100 100 100 100 100 100 100 100 100 100 100 100 100 100 100 100 100 100 100 100 100 100 100 95 100 100 100 100 100 100 100 100 100 100 100 100 58 100 100 100 70 60 23 46 89 71 79 93 95 100 100
100 100 100 100 100 100 100 100 100 100 100 100 100 100 99 100 100 100 100 97 100 100 100 100 100 100 100 100 100 100 100 99 100 100 100 100 100 100 100 99 64 63 21 63 89 34 6 11 56 56 51 85 100 100
100 100 100 100 100 100 100 100 100 100 100 100 100 100 100 100 100 100 100 100 100 100 100 81 82 69 100 100 100 100 100 100 100 100 100 100 100 90 47 14 69 78 77 100 100 53 100 52 12 64 62 76 46 50
100 100 100 97 100 100 100 100 100 93 100 100 100 100 100 100 100 100 100 100 100 100 100 100 100 98 99 98 100 100 100 100 100 100 100 100 100 96 69 14 5 13 12 6 39 74 64 57 52 4 4 5 44 91
83 91 100 100 100 100 99 100 99 100 100 100 100 100 100 100 93 100 100 100 100 100 100 100 100 100 100 100 100 100 72 84 68 56 100 67 97 45 20 5 5 5 6 5 5 5 4 52 4 4 5 5 20 100
100 100 100 100 100 100 100 100 100 100 100 100 100 100 100 100 100 100 100 100 100 87 93 91 99 100 100 92 81 86 93 19 10 18 57 100 14 5 5 5 5 5 5 1 4 4 0 0 3 3 26 81 17 4
100 100 100 100 100 100 100 100 100 100 100 100 100 100 100 94 100 99 99 100 100 100 100 100 100 94 86 95 74 19 5 53 98 13 5 5 5 5 5 5 2 0 2 5 5 5 5 5 5 5 5 5 3 1
100 83 98 100 100 100 91 100 96 85 100 100 100 100 100 100 100 98 100 100 99 99 89 55 76 11 68 97 22 42 10 35 67 84 5 5 4 5 6 5 5 4 0 5 5 5 5 5 5 5 5 5 4 2
93 82 83 100 59 96 48 82 97 99 100 100 100 100 95 100 100 100 96 100 98 56 91 42 82 28 17 5 6 10 10 20 5 10 5 5 4 2 4 4 5 5 5 5 5 5 5 5 3 3 1 0 0 0
83 86 98 100 91 64 80 74 75 90 100 100 100 78 100 100 100 100 68 72 95 99 96 84 95 86 98 98 96 12 5 5 5 4 3 5 5 5 5 5 5 10 5 5 4 2 0 2 0 0 0 0 0 2
100 100 100 100 82 98 100 91 36 85 67 80 99 100 100 95 41 34 70 68 42 72 68 39 5 5 5 5 5 5 5 5 5 5 5 6 8 5 16 6 5 5 5 5 5 5 5 5 0 0 0 0 1 4
98 100 100 81 73 94 87 80 98 100 64 68 96 53 47 58 46 52 95 37 40 22 5 5 5 5 5 5 5 5 5 5 5 7 16 35 47 16 11 5 5 5 5 5 5 5 4 4 3 5 5 5 5 5
100 100 97 58 73 99 95 99 100 98 100 100 82 67 51 42 5 5 5 5 5 5 5 5 5 5 5 5 5 5 5 5 42 54 32 8 5 12 14 5 5 5 5 5 5 5 5 5 5 5 5 5 10 6
77 64 82 84 18 5 58 86 43 34 21 88 83 73 45 68 6 5 5 5 5 15 19 6 5 5 5 5 5 5 5 5 5 10 39 27 6 5 5 5 5 5 5 5 0 5 5 5 5 5 5 6 13 18
44 54 98 77 85 97 86 63 79 15 47 54 12 11 5 5 5 5 5 5 6 5 5 5 5 5 5 5 5 5 5 5 5 29 5 5 5 5 11 5 3 5 5 5 5 5 5 5 5 5 6 13 19 38